Location: Kumla
(59.1265°N, 15.1401°E)
Time: 16:43:19
(UTC+01:00)

A-11 Canister half - Pass Details

Date: 08 December 2023
Orbit: 1512 x 1687 km, 47.2° (Epoch: 25 February)

Event Time Altitude Azimuth Distance (km) Brightness Sun altitude
Rises 03:51:55 0° 268° (W) 4,807 - -34.5°
Reaches altitude 10° 03:55:17 10° 261° (W) 3,845 - -34.1°
Maximum altitude 04:03:54 36° 199° (SSW) 2,398 - -33.0°
Exits shadow 04:04:29 36° 192° (SSW) 2,410 9.7 -32.9°
Drops below altitude 10° 04:12:43 10° 138° (SE) 3,937 11.5 -31.9°
Sets 04:16:13 0° 131° (SE) 4,933 12.2 -31.4°
